| time (UTC) | temp F | wind direction | speed MPH | gust MPH | rain 1hr in | rain 24hr in | rain mn in | humidity % | barometer mb |
| 20260506150007 | 79 | 196 | 2.0 | 6.0 | 0.00 | 0.00 | 0.00 | 85 | 1008.4 |
| 20260506144506 | 79 | 201 | 3.0 | 8.0 | 0.00 | 0.00 | 0.00 | 85 | 1008.2 |
| 20260506143005 | 79 | 207 | 2.0 | 7.0 | 0.00 | 0.00 | 0.00 | 86 | 1008.0 |
| 20260506141503 | 78 | 203 | 1.0 | 7.0 | 0.00 | 0.00 | 0.00 | 88 | 1008.0 |
| 20260506140002 | 78 | 219 | 1.0 | 5.0 | 0.00 | 0.00 | 0.00 | 89 | 1008.2 |
| 20260506134502 | 77 | 172 | 0.0 | 5.0 | 0.00 | 0.00 | 0.00 | 90 | 1008.2 |
| 20260506133032 | 77 | 186 | 2.0 | 4.0 | 0.00 | 0.00 | 0.00 | 90 | 1008.3 |
| 20260506131534 | 76 | 184 | 1.0 | 7.0 | 0.00 | 0.00 | 0.00 | 90 | 1008.3 |
| 20260506130003 | 76 | 188 | 0.0 | 6.0 | 0.00 | 0.00 | 0.00 | 91 | 1008.5 |
| 20260506124600 | 76 | 205 | 0.0 | 3.0 | 0.00 | 0.00 | 0.00 | 91 | 1008.4 |
| 20260506123033 | 76 | 203 | 0.0 | 5.0 | 0.00 | 0.00 | 0.00 | 91 | 1008.3 |
| 20260506121529 | 76 | 200 | 0.0 | 6.0 | 0.00 | 0.00 | 0.00 | 91 | 1008.1 |
| 20260506120038 | 75 | 200 | 0.0 | 5.0 | 0.00 | 0.00 | 0.00 | 91 | 1007.9 |
| 20260506114525 | 75 | 195 | 0.0 | 5.0 | 0.00 | 0.00 | 0.00 | 91 | 1007.7 |
| 20260506113030 | 75 | 199 | 1.0 | 5.0 | 0.00 | 0.00 | 0.00 | 91 | 1007.5 |
| 20260506111523 | 75 | 206 | 0.0 | 4.0 | 0.00 | 0.00 | 0.00 | 91 | 1007.3 |
| 20260506110021 | 75 | 206 | 1.0 | 4.0 | 0.00 | 0.00 | 0.00 | 91 | 1007.1 |
| 20260506104520 | 75 | 214 | 1.0 | 4.0 | 0.00 | 0.00 | 0.00 | 90 | 1007.0 |
| 20260506103019 | 75 | 213 | 0.0 | 4.0 | 0.00 | 0.00 | 0.00 | 90 | 1007.1 |
| 20260506101517 | 75 | 187 | 0.0 | 7.0 | 0.00 | 0.00 | 0.00 | 90 | 1007.0 |
| 20260506100016 | 75 | 187 | 2.0 | 5.0 | 0.00 | 0.00 | 0.00 | 90 | 1007.0 |
| 20260506094518 | 75 | 201 | 2.0 | 7.0 | 0.00 | 0.00 | 0.00 | 90 | 1006.7 |
| 20260506093013 | 75 | 205 | 1.0 | 7.0 | 0.00 | 0.00 | 0.00 | 89 | 1006.8 |
| 20260506091516 | 76 | 211 | 2.0 | 10.0 | 0.00 | 0.00 | 0.00 | 88 | 1006.8 |
| 20260506090048 | 76 | 207 | 2.0 | 7.0 | 0.00 | 0.00 | 0.00 | 88 | 1007.0 |
| 20260506084553 | 76 | 209 | 2.0 | 6.0 | 0.00 | 0.00 | 0.00 | 88 | 1007.0 |
| 20260506083038 | 76 | 224 | 3.0 | 8.0 | 0.00 | 0.00 | 0.00 | 88 | 1007.1 |
| 20260506081540 | 76 | 206 | 1.0 | 7.0 | 0.00 | 0.00 | 0.00 | 88 | 1007.2 |
| 20260506073005 | 77 | 207 | 2.0 | 8.0 | 0.00 | 0.00 | 0.00 | 87 | 1007.7 |
| 20260506071504 | 77 | 205 | 3.0 | 8.0 | 0.00 | 0.00 | 0.00 | 87 | 1007.6 |
| 20260506061603 | 77 | 198 | 2.0 | 6.0 | 0.00 | 0.00 | 0.00 | 86 | 1008.1 |
| 20260506050107 | 77 | 209 | 2.0 | 9.0 | 0.00 | 0.00 | 0.00 | 86 | 1008.1 |
| 20260506044552 | 77 | 198 | 2.0 | 6.0 | 0.00 | 0.00 | 0.00 | 86 | 1008.0 |
| 20260506043054 | 77 | 209 | 1.0 | 5.0 | 0.00 | 0.00 | 0.00 | 86 | 1007.9 |
| 20260506041548 | 77 | 220 | 2.0 | 10.0 | 0.00 | 0.00 | 0.00 | 85 | 1007.8 |
| 20260506040051 | 77 | 194 | 3.0 | 7.0 | 0.00 | 0.00 | 0.00 | 85 | 1008.0 |
| 20260506034517 | 78 | 198 | 3.0 | 10.0 | 0.00 | 0.00 | 0.00 | 84 | 1007.8 |
| 20260506033018 | 78 | 213 | 4.0 | 11.0 | 0.00 | 0.00 | 0.00 | 84 | 1007.3 |
| 20260506031513 | 78 | 194 | 4.0 | 9.0 | 0.00 | 0.00 | 0.00 | 84 | 1007.3 |
| 20260506030018 | 78 | 187 | 3.0 | 9.0 | 0.00 | 0.00 | 0.00 | 83 | 1007.2 |
| 20260506024531 | 78 | 192 | 5.0 | 12.0 | 0.00 | 0.00 | 0.00 | 83 | 1007.0 |
| 20260506023011 | 78 | 194 | 4.0 | 8.0 | 0.00 | 0.00 | 0.00 | 82 | 1006.8 |
| 20260506021509 | 79 | 205 | 4.0 | 8.0 | 0.00 | 0.00 | 0.00 | 82 | 1006.6 |
| 20260506020010 | 79 | 211 | 5.0 | 10.0 | 0.00 | 0.00 | 0.00 | 81 | 1006.5 |
| 20260506014509 | 79 | 182 | 4.0 | 11.0 | 0.00 | 0.00 | 0.00 | 81 | 1006.2 |
| 20260506013007 | 79 | 194 | 3.0 | 8.0 | 0.00 | 0.00 | 0.00 | 80 | 1006.0 |
| 20260506011506 | 79 | 196 | 3.0 | 10.0 | 0.00 | 0.00 | 0.00 | 80 | 1005.8 |
| 20260506010007 | 79 | 196 | 3.0 | 8.0 | 0.00 | 0.00 | 0.00 | 79 | 1005.6 |
| 20260506004506 | 80 | 194 | 3.0 | 9.0 | 0.00 | 0.00 | 0.00 | 79 | 1005.6 |
| 20260506003003 | 80 | 182 | 2.0 | 13.0 | 0.00 | 0.00 | 0.00 | 78 | 1005.4 |
| 20260506001538 | 80 | 184 | 5.0 | 14.0 | 0.00 | 0.00 | 0.00 | 78 | 1005.4 |
| 20260506000038 | 80 | 247 | 5.0 | 11.0 | 0.00 | 0.00 | 0.00 | 78 | 1005.4 |
| 20260505234530 | 81 | 203 | 5.0 | 10.0 | 0.00 | 0.00 | 0.00 | 78 | 1005.2 |
| 20260505233029 | 81 | 163 | 5.0 | 12.0 | 0.00 | 0.00 | 0.00 | 78 | 1005.3 |
| 20260505231533 | 81 | 170 | 5.0 | 9.0 | 0.00 | 0.00 | 0.00 | 78 | 1005.3 |
| 20260505230035 | 81 | 195 | 5.0 | 10.0 | 0.00 | 0.00 | 0.00 | 77 | 1005.4 |
| 20260505224525 | 81 | 211 | 6.0 | 13.0 | 0.00 | 0.00 | 0.00 | 76 | 1005.3 |
| 20260505223030 | 82 | 197 | 5.0 | 13.0 | 0.00 | 0.00 | 0.00 | 77 | 1005.4 |
| 20260505221525 | 82 | 191 | 2.0 | 10.0 | 0.00 | 0.00 | 0.00 | 76 | 1005.4 |
| 20260505220021 | 83 | 190 | 4.0 | 11.0 | 0.00 | 0.00 | 0.00 | 75 | 1005.6 |
| 20260505214524 | 83 | 200 | 3.0 | 10.0 | 0.00 | 0.00 | 0.00 | 75 | 1005.7 |
| 20260505213019 | 83 | 193 | 2.0 | 9.0 | 0.00 | 0.00 | 0.00 | 75 | 1005.9 |
| 20260505211515 | 83 | 223 | 5.0 | 11.0 | 0.00 | 0.00 | 0.00 | 75 | 1006.0 |
| 20260505210014 | 83 | 198 | 4.0 | 12.0 | 0.00 | 0.00 | 0.00 | 76 | 1006.1 |
| 20260505204508 | 83 | 196 | 3.0 | 10.0 | 0.00 | 0.00 | 0.00 | 76 | 1006.3 |
| 20260505203007 | 83 | 218 | 3.0 | 11.0 | 0.00 | 0.00 | 0.00 | 75 | 1006.6 |
| 20260505201511 | 83 | 210 | 3.0 | 10.0 | 0.00 | 0.00 | 0.00 | 75 | 1006.9 |
| 20260505200003 | 82 | 232 | 3.0 | 10.0 | 0.00 | 0.00 | 0.00 | 76 | 1006.9 |
| 20260505194533 | 82 | 221 | 3.0 | 9.0 | 0.00 | 0.00 | 0.00 | 76 | 1007.2 |
| 20260505193034 | 82 | 199 | 5.0 | 13.0 | 0.00 | 0.00 | 0.00 | 76 | 1007.3 |
| 20260505191523 | 81 | 214 | 4.0 | 8.0 | 0.00 | 0.00 | 0.00 | 78 | 1007.4 |
| 20260505190027 | 81 | 175 | 3.0 | 14.0 | 0.00 | 0.00 | 0.00 | 78 | 1007.5 |
| 20260505184521 | 81 | 228 | 5.0 | 10.0 | 0.00 | 0.00 | 0.00 | 79 | 1007.6 |
| 20260505183027 | 80 | 300 | 3.0 | 11.0 | 0.00 | 0.00 | 0.00 | 78 | 1007.7 |
| 20260505181550 | 80 | 202 | 2.0 | 9.0 | 0.00 | 0.00 | 0.00 | 79 | 1007.7 |
| 20260505180050 | 80 | 185 | 3.0 | 11.0 | 0.00 | 0.00 | 0.00 | 80 | 1007.9 |
| 20260505174514 | 79 | 167 | 3.0 | 9.0 | 0.00 | 0.00 | 0.00 | 79 | 1008.1 |
| 20260505173013 | 79 | 193 | 3.0 | 12.0 | 0.00 | 0.00 | 0.00 | 80 | 1008.2 |
| 20260505171508 | 79 | 218 | 4.0 | 11.0 | 0.00 | 0.00 | 0.00 | 80 | 1008.2 |
| 20260505170008 | 78 | 219 | 3.0 | 8.0 | 0.00 | 0.00 | 0.00 | 81 | 1008.4 |
| 20260505164506 | 78 | 202 | 1.0 | 14.0 | 0.00 | 0.00 | 0.00 | 82 | 1008.4 |
| 20260505163009 | 78 | 174 | 4.0 | 9.0 | 0.00 | 0.00 | 0.00 | 81 | 1008.2 |
| 20260505161608 | 78 | 208 | 3.0 | 7.0 | 0.00 | 0.00 | 0.00 | 81 | 1008.2 |
| 20260505153101 | 77 | 224 | 4.0 | 10.0 | 0.00 | 0.00 | 0.00 | 83 | 1007.9 |
| 20260505151603 | 76 | 229 | 4.0 | 10.0 | 0.00 | 0.00 | 0.00 | 83 | 1007.9 |